Location: Greenwich
(51.4790°N, 0.0090°E)
Time: 21:30:49
(UTC+01:00)

Tiros 1 - All Passes

Search period start: 17 June 2025 00:00
Search period end: 27 June 2025 00:00
Orbit: 620 x 651 km, 48.4° (Epoch: 17 June)

Date Brightness Start Highest point End Pass type
(mag) Time Alt. Az. Time Alt. Az. Time Alt. Az.
17 Jun - 06:57:24 10° S 07:00:04 15° SE 07:02:45 10° ESE daylight
17 Jun - 08:36:52 10° SW 08:41:11 40° SSE 08:45:30 10° E daylight
17 Jun - 10:18:14 10° WSW 10:22:47 60° S 10:27:18 10° E daylight
17 Jun - 12:00:03 10° W 12:04:23 42° SSW 12:08:41 10° SE daylight
17 Jun - 13:42:43 10° WSW 13:45:31 16° SW 13:48:17 10° S daylight
18 Jun - 07:18:06 10° SSW 07:21:53 25° SSE 07:25:38 10° E daylight
18 Jun - 08:58:45 10° WSW 09:03:15 52° SSE 09:07:44 10° E daylight
18 Jun - 10:40:24 10° W 10:44:55 56° S 10:49:24 10° ESE daylight
18 Jun - 12:22:24 10° W 12:26:22 29° SSW 12:30:18 10° SSE daylight
19 Jun - 06:00:38 10° SSE 06:02:47 13° SE 06:04:55 10° ESE daylight
19 Jun - 07:39:32 10° SW 07:43:49 37° SSE 07:48:03 10° E daylight
19 Jun - 09:20:49 10° WSW 09:25:23 59° S 09:29:54 10° E daylight
19 Jun - 11:02:36 10° W 11:07:00 45° SSW 11:11:22 10° SE daylight
19 Jun - 12:45:02 10° W 12:48:13 19° SW 12:51:22 10° S daylight
20 Jun - 06:20:57 10° SSW 06:24:32 22° SSE 06:28:07 10° E daylight
20 Jun - 08:01:22 10° WSW 08:05:51 50° SSE 08:10:19 10° E daylight
20 Jun - 09:42:58 10° W 09:47:31 58° S 09:52:01 10° ESE daylight
20 Jun - 11:24:54 10° W 11:29:00 32° SSW 11:33:05 10° SE daylight
20 Jun - 13:09:17 10° SW 13:09:55 10° SW 13:10:32 10° SW daylight
21 Jun - 05:04:12 10° SSE 05:05:29 11° SE 05:06:46 10° ESE daylight
21 Jun - 06:42:15 10° SW 06:46:26 34° SSE 06:50:36 10° E daylight
21 Jun - 08:23:23 10° WSW 08:27:57 58° S 08:32:29 10° E daylight
21 Jun - 10:05:09 10° W 10:09:37 49° SSW 10:14:02 10° ESE daylight
21 Jun - 11:47:25 10° W 11:50:53 21° SW 11:54:20 10° SSE daylight
22 Jun - 05:23:52 10° S 05:27:12 19° SE 05:30:31 10° E daylight
22 Jun - 07:03:59 10° SW 07:08:27 46° SSE 07:12:52 10° E daylight
22 Jun - 08:45:31 10° W 08:50:06 59° S 08:54:37 10° ESE daylight
22 Jun - 10:27:24 10° W 10:31:38 36° SSW 10:35:49 10° SE daylight
22 Jun - 12:10:44 10° WSW 12:12:37 12° SW 12:14:30 10° SSW daylight
23 Jun - 05:44:58 10° SSW 05:49:03 30° SSE 05:53:07 10° E daylight
23 Jun - 07:25:58 10° WSW 07:30:32 57° S 07:35:04 10° E daylight
23 Jun - 09:07:41 10° W 09:12:12 52° SSW 09:16:40 10° ESE daylight
23 Jun - 10:49:50 10° W 10:53:33 24° SSW 10:57:13 10° SSE daylight
24 Jun - 04:26:51 10° S 04:29:51 17° SE 04:32:52 10° ESE daylight
24 Jun - 06:06:37 10° SW 06:11:02 43° SSE 06:15:26 10° E daylight
24 Jun - 07:48:04 10° W 07:52:40 60° S 07:57:12 10° ESE daylight
24 Jun - 09:29:55 10° W 09:34:15 40° SSW 09:38:32 10° SE daylight
24 Jun - 11:12:47 10° WSW 11:15:19 15° SW 11:17:50 10° S daylight
25 Jun - 04:47:44 10° SSW 04:51:41 27° SSE 04:55:36 10° E daylight
25 Jun - 06:28:32 10° WSW 06:33:06 54° S 06:37:38 10° E daylight
25 Jun - 08:10:13 10° W 08:14:47 55° S 08:19:17 10° ESE daylight
25 Jun - 09:52:16 10° W 09:56:11 27° SSW 10:00:04 10° SSE daylight
26 Jun - 03:29:57 10° S 03:32:32 15° SE 03:35:07 10° ESE visible
26 Jun - 05:09:15 10° SW 05:13:38 39° SSE 05:17:58 10° E daylight
26 Jun - 06:50:37 10° WSW 06:55:13 60° S 06:59:47 10° E daylight
26 Jun - 08:32:26 10° W 08:36:50 43° SSW 08:41:12 10° SE daylight
26 Jun - 10:15:01 10° WSW 10:18:00 17° SW 10:20:58 10° S daylight
